Location: Saint Mary
(48.7436°N, 113.4291°W)
Time: 22:22:33
(UTC+00:00)

ARIANE 6 FM1 Upper Stage - Pass Details

Date: 14 December 2025
Orbit: 522 x 610 km, 62.0° (Epoch: 18 January)

Event Time Altitude Azimuth Distance (km) Brightness Sun altitude
Rises 14:32:40 0° 222° (SW) 2,685 6.0 -7.4°
Reaches altitude 10° 14:34:52 10° 223° (SW) 1,786 5.1 -7.1°
Maximum altitude 14:38:53 90° 85° (E) 534 2.6 -6.5°
Drops below altitude 10° 14:42:51 10° 44° (NE) 1,770 5.4 -6.0°
Sets 14:45:02 0° 45° (NE) 2,659 6.3 -5.6°
